Theta_e
312 310 311 311 311 312 311 312 313 313 312 312 312 313 315 325 322 321 328 331 330 329 328 328 326 319 317 316 314 312 312 312 311 311 311 310 310 310 309 309 309 308 308 308
310 311 311 312 313 312 311 312 312 313 313 312 311 311 312 326 323 323 322 329 330 330 329 327 326 326 315 315 313 311 312 312 311 311 311 310 310 309 309 309 308 307 307 307
313 312 312 313 311 312 311 313 312 314 313 311 311 310 311 316 323 327 328 328 329 329 329 327 326 326 323 314 313 312 312 311 311 311 311 310 310 308 308 308 307 307 307 307
313 311 311 313 311 311 312 312 313 314 312 313 310 311 308 310 311 328 329 326 327 325 326 327 326 326 326 318 314 313 313 311 311 311 311 310 310 309 308 308 307 307 307 307
311 311 311 314 312 311 312 311 312 313 312 311 310 311 310 309 310 313 323 326 326 325 326 327 326 326 326 324 321 317 314 313 311 311 310 311 310 309 309 308 307 307 306 306
311 310 312 312 311 311 310 312 313 312 311 313 311 308 307 311 312 312 309 312 324 324 326 326 327 326 326 325 325 324 315 314 312 311 310 311 310 310 309 308 307 306 306 305
306 311 310 311 309 309 309 310 312 310 312 313 310 308 307 310 309 310 309 309 314 321 321 321 321 321 323 323 323 324 323 319 313 312 311 311 311 310 310 308 307 306 305 304
305 304 308 308 311 311 310 311 309 314 312 310 308 309 310 309 308 307 308 308 309 310 315 319 319 321 322 322 322 324 322 318 316 311 311 311 311 311 310 309 307 306 305 304
306 303 307 309 309 309 307 309 309 311 311 310 308 307 309 309 309 309 309 309 309 311 310 313 319 319 320 321 321 321 324 320 315 313 311 311 311 311 310 309 308 307 305 304
307 305 305 308 308 310 310 308 308 308 313 314 309 307 310 310 310 309 309 310 310 310 310 308 309 312 318 320 320 321 325 322 321 316 312 311 311 311 311 310 309 307 306 304
306 305 304 303 308 308 307 310 308 307 307 311 310 309 307 307 309 308 307 306 306 308 308 308 309 312 313 313 316 320 323 324 322 318 315 312 312 311 311 310 309 308 306 305
306 303 302 302 304 306 307 308 306 306 306 304 303 305 303 306 308 308 306 304 303 302 306 307 308 311 313 314 314 314 314 323 323 322 319 314 312 312 311 310 309 307 305 304
305 300 299 301 301 303 306 306 307 305 304 305 305 304 304 301 302 304 305 303 302 301 303 304 306 308 311 312 313 313 314 318 322 321 319 314 313 312 311 310 308 306 305 304
305 303 300 300 299 302 303 303 303 303 304 303 305 305 304 304 303 302 301 301 301 301 301 300 301 304 310 312 313 313 313 314 319 318 316 312 311 311 309 308 307 306 305 304
304 305 303 303 302 303 304 304 303 301 302 303 303 302 302 302 301 302 302 302 302 302 302 301 300 302 307 310 312 312 312 313 316 316 313 311 311 310 309 307 305 304 302 302
304 305 304 304 304 303 303 303 302 302 302 302 302 303 303 302 299 302 303 304 303 302 301 301 302 304 307 310 311 310 309 310 311 312 311 309 308 307 305 303 302 301 302 301
304 305 304 305 303 302 301 303 302 302 302 303 303 302 301 302 304 304 304 303 303 302 302 302 301 302 308 310 310 308 306 306 306 306 306 306 306 304 303 301 300 299 298 297
299 301 299 301 301 304 302 301 302 303 304 304 304 304 303 302 301 303 303 303 302 301 303 302 301 303 306 310 309 307 305 303 303 303 302 302 301 299 298 297 296 294 294 293
300 300 301 303 302 302 303 304 307 305 305 302 303 303 303 302 301 302 301 301 302 302 301 302 304 304 305 310 308 305 302 301 300 299 298 298 297 296 295 293 292 292 290 289
302 301 302 302 304 306 304 305 305 305 304 302 302 302 302 302 304 302 301 300 300 301 302 302 303 304 305 308 306 302 299 298 297 297 296 296 295 293 292 291 290 290 291 290
304 303 304 304 305 303 300 302 302 305 304 300 301 301 301 301 300 299 299 299 300 301 302 303 302 302 304 307 303 300 298 296 297 296 295 294 293 292 291 290 289 289 289 290
305 305 304 303 304 306 301 302 303 299 297 296 297 297 297 297 298 299 300 300 299 299 300 302 301 302 302 304 303 300 299 299 297 296 294 293 293 292 290 290 289 289 287 285
304 302 301 303 303 295 295 295 292 291 292 293 294 294 293 293 294 295 297 299 299 299 299 300 300 301 302 302 304 300 300 298 296 295 293 292 291 290 288 287 286 286 285 285
299 293 299 298 294 289 293 289 288 288 289 289 289 290 291 291 292 293 294 295 296 298 299 299 299 299 299 301 303 303 301 298 294 291 290 289 287 286 286 286 285 285 284 284
289 291 290 293 290 288 290 288 287 287 287 288 287 287 288 288 289 290 291 292 294 295 298 299 298 298 298 300 300 300 299 296 291 289 288 287 287 286 285 285 285 285 286 289
286 287 288 287 287 287 287 286 286 286 286 286 285 285 286 286 287 287 289 290 291 293 295 298 298 297 298 299 298 298 296 292 289 287 287 286 287 286 286 286 288 291 292 289
Wind_Speed
3 7 5 9 6 8 7 4 6 4 6 3 6 6 7 9 11 8 3 5 10 8 10 5 3 26 31 29 28 29 28 25 25 26 24 22 21 19 18 16 16 18 19 17
7 3 7 8 7 8 7 5 6 5 10 6 3 7 8 12 8 13 15 13 8 8 9 10 12 3 27 31 30 30 29 28 26 27 25 24 22 21 19 18 16 17 19 18
1 5 7 7 5 11 5 4 5 5 10 4 1 7 4 6 7 9 12 17 13 14 15 14 16 13 9 28 32 31 29 28 26 26 24 22 19 19 19 21 21 20 18 18
4 4 6 8 3 5 5 3 5 6 6 2 4 4 7 3 5 11 10 9 12 11 11 14 16 22 19 23 30 29 29 29 28 27 27 30 31 27 24 27 24 23 21 20
6 4 5 4 5 4 8 8 10 4 3 3 9 4 7 5 7 3 4 10 14 14 13 12 17 28 32 29 27 28 30 29 31 31 31 32 32 30 22 27 25 25 23 23
7 1 2 2 10 3 7 6 5 3 2 3 5 4 6 3 0 2 4 3 8 9 12 12 18 20 23 31 28 29 30 32 33 34 35 37 36 32 24 28 28 28 26 25
7 3 1 1 6 6 9 7 4 6 5 2 5 4 7 3 2 2 4 6 5 4 6 9 12 18 21 25 28 27 34 35 38 40 38 40 39 34 32 32 33 32 29 29
3 8 5 5 2 3 5 3 4 2 3 5 4 2 5 3 1 5 5 6 4 6 4 7 9 12 17 25 28 26 27 31 37 36 40 42 40 36 34 34 37 36 35 33
5 6 3 2 1 2 7 5 1 1 2 1 3 5 3 4 6 6 6 5 4 1 3 6 10 16 18 21 24 27 27 28 32 37 36 40 40 37 37 36 35 36 35 32
1 5 3 3 1 2 1 4 4 3 4 4 5 5 4 3 4 5 3 3 4 3 5 4 5 11 17 22 25 26 26 30 35 38 38 35 37 41 39 37 37 37 35 32
1 2 7 4 0 3 2 2 2 1 3 2 4 6 6 5 5 6 7 8 7 8 8 7 7 10 12 14 15 20 26 30 32 36 39 39 37 37 39 39 39 38 35 34
2 3 3 9 4 3 1 1 3 3 5 1 3 7 7 5 5 3 6 7 7 8 9 8 8 10 10 12 14 16 18 29 34 36 35 35 33 36 38 37 38 36 34 33
0 2 4 8 5 3 1 3 3 1 2 5 2 6 1 7 8 3 5 8 8 7 7 7 6 8 12 13 13 15 17 18 29 32 33 33 36 37 36 38 39 37 38 37
3 3 7 6 8 1 7 5 4 6 3 5 11 19 19 18 12 12 9 7 7 6 5 5 6 7 13 14 13 12 13 15 20 27 31 31 32 33 34 37 38 40 39 39
5 6 4 5 6 7 12 16 11 10 12 9 22 12 20 18 14 13 7 7 7 7 6 5 5 6 8 9 10 11 12 11 14 21 26 25 30 32 32 33 36 38 40 40
3 4 4 7 6 10 15 16 18 12 11 13 14 21 20 16 9 6 6 3 5 6 6 6 7 6 7 9 10 9 9 9 13 20 24 26 28 29 31 32 35 37 39 38
4 4 1 8 3 4 13 5 3 4 4 5 5 9 7 7 8 7 5 4 5 6 6 6 6 7 12 13 13 11 11 11 13 17 19 23 27 29 32 34 36 35 36 37
5 5 4 4 0 4 8 5 7 7 3 6 5 9 12 10 8 5 3 4 6 6 6 7 6 8 13 14 15 14 12 13 15 17 19 23 26 27 28 29 29 30 34 34
14 4 3 3 3 6 9 5 1 4 5 16 13 16 9 10 9 5 8 4 2 4 6 10 14 14 14 17 19 17 15 16 17 18 20 22 25 28 30 28 30 31 31 29
4 3 4 2 3 4 4 8 6 1 5 18 18 17 18 14 9 5 11 9 9 14 19 17 16 16 14 18 20 20 20 21 23 23 22 24 26 28 30 35 35 35 35 33
1 1 5 8 4 6 12 12 8 4 7 17 14 13 13 9 8 13 15 13 13 14 21 20 16 16 18 15 23 22 20 23 24 24 24 26 29 30 31 32 32 36 36 36
2 2 4 1 3 6 16 8 6 7 10 14 15 13 14 15 17 17 17 15 17 20 22 25 19 20 20 17 25 24 24 23 23 26 28 28 30 28 30 32 31 32 33 30
7 2 1 2 0 7 10 11 10 11 13 16 16 16 17 18 18 18 16 18 16 22 24 27 21 24 25 21 26 24 30 24 26 27 25 25 28 29 32 33 33 32 33 31
6 11 3 7 7 19 3 10 13 15 15 17 16 17 18 20 20 20 18 18 17 25 26 30 28 23 24 30 28 34 30 29 30 25 24 23 23 23 29 31 32 30 28 26
4 7 8 5 9 16 10 21 21 23 22 22 21 18 17 18 20 19 19 20 22 26 29 31 27 27 25 31 27 29 28 32 29 28 30 28 25 24 22 24 27 28 27 28
5 4 3 3 9 8 12 16 20 21 22 20 21 26 24 22 21 22 19 25 27 27 31 30 30 27 29 28 26 28 30 34 32 27 27 29 29 29 27 25 25 25 24 21
Wind_Direction
319 52 349 292 283 267 265 331 360 300 358 298 263 282 222 143 134 147 313 220 156 182 144 169 39 164 170 174 177 180 183 180 182 182 175 175 175 175 176 184 188 185 180 180
13 356 302 310 329 6 26 17 344 310 337 327 293 286 256 165 177 182 159 199 182 160 131 156 183 282 172 177 181 185 189 188 187 187 182 180 178 176 182 180 187 188 186 187
38 287 334 355 4 0 325 14 327 292 318 319 303 318 303 189 193 207 177 186 177 168 163 168 165 189 219 180 188 189 192 193 194 192 186 183 178 175 173 178 183 188 193 189
267 313 352 334 348 30 310 306 324 322 13 316 49 301 328 240 184 180 182 167 199 187 178 175 163 174 212 192 193 195 195 195 197 196 194 191 186 184 196 191 192 191 193 192
270 319 346 325 307 349 253 306 293 266 308 10 351 68 285 42 32 12 248 206 200 199 173 183 185 184 194 189 185 194 203 200 202 203 205 201 198 202 202 200 198 199 195 195
255 336 174 258 306 266 300 320 3 61 57 40 300 101 305 16 4 98 41 308 219 196 180 184 184 189 195 194 193 194 191 200 208 208 207 207 206 204 200 197 200 200 199 195
326 328 294 316 343 346 13 23 357 9 14 228 282 51 237 283 311 94 85 34 43 191 185 187 189 192 197 195 197 205 201 197 209 207 209 210 213 211 208 203 202 200 199 198
39 332 359 344 124 276 313 75 117 351 343 287 310 265 267 130 8 60 62 118 86 108 176 218 223 217 205 207 210 207 205 201 208 211 209 210 215 217 217 212 209 206 205 204
11 291 318 253 313 70 326 29 177 245 287 347 268 304 30 26 46 45 42 40 61 217 201 174 209 222 223 222 217 218 217 208 206 213 214 207 213 215 216 215 215 211 209 209
289 301 282 311 356 326 130 290 22 12 356 315 306 311 224 227 194 172 169 210 260 240 246 254 226 224 226 230 230 221 220 208 213 214 215 215 212 213 216 216 214 214 211 207
283 145 292 348 351 263 357 5 3 148 148 239 310 270 216 234 233 202 226 225 229 237 246 237 232 235 245 248 233 229 229 222 213 213 213 214 214 213 210 210 214 211 207 203
209 177 263 266 311 348 112 103 108 112 297 261 200 270 282 199 91 199 317 300 277 256 246 239 235 237 244 261 266 266 249 225 221 221 216 213 214 211 205 202 208 203 199 196
256 289 326 333 350 358 63 207 190 136 100 212 206 260 342 314 328 348 300 297 302 308 262 259 263 248 246 249 255 269 267 259 231 223 218 211 209 208 201 199 200 197 193 188
124 218 195 212 236 262 283 259 232 194 185 250 232 274 285 292 299 305 315 292 303 304 289 261 267 246 250 256 259 265 266 260 235 218 212 205 203 202 195 192 192 191 193 189
163 224 239 248 262 283 277 281 268 213 228 206 271 255 271 280 279 283 275 317 335 333 337 317 299 279 267 244 249 271 271 252 224 211 206 203 203 199 195 190 185 181 180 182
205 250 195 276 258 271 289 285 270 241 247 238 250 272 274 268 272 243 281 315 324 329 323 319 316 293 260 244 244 248 251 234 218 207 201 193 188 185 179 175 171 172 176 181
206 190 172 267 247 346 305 245 165 204 191 208 238 250 304 279 256 252 244 246 275 290 294 306 292 282 263 239 232 226 219 209 215 205 196 188 184 177 175 172 170 169 171 169
220 155 189 264 313 201 241 262 245 235 59 26 357 4 351 308 281 255 220 227 261 271 289 297 292 289 271 242 225 224 221 217 207 198 189 183 173 166 164 161 158 157 161 162
210 165 238 239 203 288 283 300 140 121 76 12 356 357 350 334 329 341 348 273 269 290 291 286 295 296 284 236 213 208 208 205 201 197 184 178 172 162 159 154 152 153 152 155
79 184 171 155 226 249 46 315 310 95 180 15 6 7 359 345 352 306 335 347 351 331 308 291 297 300 292 245 218 205 199 197 199 197 187 180 175 166 161 160 160 160 163 162
25 15 220 237 259 283 341 345 318 262 340 337 350 346 349 352 321 312 331 330 313 306 310 302 290 286 283 256 221 210 203 206 205 194 188 182 178 172 168 161 160 161 163 170
249 214 219 195 231 271 1 34 43 339 323 329 330 335 331 320 315 316 315 317 322 317 314 314 285 283 287 270 219 212 211 219 203 191 183 183 182 175 172 167 166 165 162 165
304 28 286 267 343 53 50 72 19 348 329 321 325 328 322 314 314 312 307 309 306 301 298 300 284 278 276 259 231 214 222 208 197 188 185 183 181 176 171 164 163 162 164 161
16 24 19 352 23 353 20 7 358 343 331 329 319 317 321 317 320 316 312 308 306 303 298 297 292 280 263 266 241 232 220 206 191 177 169 175 177 171 165 165 163 160 160 157
351 349 337 283 3 344 338 350 342 337 339 342 335 326 320 314 311 309 304 301 297 298 297 294 289 279 260 271 258 238 217 198 178 171 165 170 176 168 160 158 158 156 157 162
349 349 351 281 354 319 308 323 338 339 336 337 331 330 336 339 321 317 308 306 305 301 298 294 288 276 266 265 252 225 210 194 173 166 168 170 169 166 164 156 148 164 172 157